Tracking 25709 objects as of 23-May-2022
HD Live streaming from Space Station
objects crossing your sky now

COSMOS 2251 DEB

Track COSMOS 2251 DEB now!
10-day predictions


NORAD ID: 35280
Int'l Code: 1993-036AJJ
Perigee: 695.9 km
Apogee: 784.8 km
Inclination: 74.0 °
Period: 99.5 minutes
Semi major axis: 7111 km
RCS: 0.0144 m2 (small)
Launch date: June 16, 1993
Source: Commonwealth of Independent States (former USSR) (CIS)
Launch site: PLESETSK MISSILE AND SPACE COMPLEX (PKMTR)

Note: This is SATELLITE DEBRIS
aabbcc
Your satellite tracking list
Your tracking list is empty




NASA's NSSDC Master Catalog

Two Line Element Set (TLE):
1 35280U 93036AJJ 22142.19252494  .00008412  00000-0  22294-2 0  9992
2 35280  74.0344  77.1726 0062553 121.3711 306.8365 14.47682849684113
Source of the keplerian elements: AFSPC